Regional Weather Roundup
Issued by NWS Sterling, VA

Home | Current Version | Previous Version | Graphics & Text | Print | Product List | Glossary On
Versions: 1 2 3 4 5 6 7 8 9 10 11 12 13 14 15 16 17 18 19 20 21 22 23 24 25 26 27
000
ASUS41 KLWX 260811
RWRLWX

REGIONAL WEATHER ROUNDUP
NATIONAL WEATHER SERVICE BALTIMORE MD/WASHINGTON DC
400 AM EDT SUN MAR 26 2017

Note: "FAIR" indicates few or no clouds below 12,000 feet
with no significant weather and/or obstructions to visibility.
 TC=TEMPERATURE CELSIUS

 * =Non NWS site. Station does not report precipitation (e.g. rain,
    snow, etc.), thunder, or fog.

DCZ001-MDZ009-015-VAZ040>042-051-053>054-260900-
WASHINGTON METRO

CITY           SKY/WX    TMP DP  RH WIND       PRES   REMARKS
WASHINGTON NAT CLOUDY    51  43  74 E13       30.25S
DULLES         CLOUDY    51  43  74 NE10      30.24R
ANDREWS AFB    CLOUDY    49  41  75 E10       30.24S
FT BELVOIR     CLOUDY    51  42  71 VRB6      30.24S
QUANTICO       PTCLDY    52  45  77 NE10      30.24R
COLLEGE PARK*  CLOUDY    46  41  81 NE7       30.27R
LEESBURG*      CLOUDY    52  46  82 E9        30.26R
MANASSAS*        N/A     53  44  71 NE8       30.23R

$$

MDZ006>007-011-014-260900-
BALTIMORE METRO

CITY           SKY/WX    TMP DP  RH WIND       PRES   REMARKS
BWI AIRPORT    CLOUDY    47  42  83 NE14      30.28S
MD SCIENCE CTR   N/A     49  39  68 MISG      30.30S
MARTIN STATE   CLOUDY    46  43  87 NE7       30.31S
ANNAPOLIS      CLOUDY    50  43  77 NE8       30.28S
FORT MEADE*    MOCLDY    46  41  81 NE6       30.30S

$$

MDZ012-015-019>023-260900-
MARYLAND EASTERN SHORE

CITY           SKY/WX    TMP DP  RH WIND       PRES   REMARKS
OCEAN CITY     CLOUDY    45  43  93 NE10G20   30.27S FOG
SALISBURY      CLOUDY    47  45  93 NE10      30.26F
BAY BRIDGE AP* CLOUDY    48  41  76 E8        30.28S
CAMBRIDGE*     CLOUDY    46  43  87 E9G16     30.26S
EASTON*        MOCLDY    48  42  81 E12       30.31S

$$

MDZ017>025-260900-
SOUTHERN MARYLAND

CITY           SKY/WX    TMP DP  RH WIND       PRES   REMARKS
PATUXENT RIVER MOCLDY    48  47  96 E9        30.24S
ST INIGOES     MOCLDY    48  45  89 NE13      30.23R
LEONARDTOWN*   PTCLDY    46  43  87 E6        30.26S

$$

MDZ003>005-260900-
NORTH CENTRAL MARYLAND

CITY           SKY/WX    TMP DP  RH WIND       PRES   REMARKS
FREDERICK*     CLOUDY    50  45  81 NE7       30.30S
HAGERSTOWN APT PTCLDY    50  43  77 E14       30.23R
WESTMINSTER*   CLOUDY    48  43  81 CALM      30.28S

$$

MDZ501>502-260900-
WESTERN MARYLAND

CITY           SKY/WX    TMP DP  RH WIND       PRES   REMARKS
OAKLAND*       CLEAR     48  45  87 E14       30.16S
CUMBERLAND*    MOCLDY    55  46  71 NE7       30.24R

$$

VAZ025>031-260900-
SHENANDOAH VALLEY

CITY           SKY/WX    TMP DP  RH WIND       PRES   REMARKS
WINCHESTER*    CLOUDY    54  46  76 E5        30.20R
FRONT ROYAL*   CLOUDY    55  48  76 NE7       30.16S
LURAY*         CLEAR     50  50 100 N5        30.16S
NEW MARKET*    CLEAR     46  44  93 CALM      30.16R
STAUNTON*      CLEAR     46  44  94 CALM      30.17S
WAYNESBORO*    PTCLDY    55  48  78 CALM      30.16S

$$

WVZ021-048>050-054>055-260900-
EASTERN WEST VIRGINIA PANHANDLE

CITY           SKY/WX    TMP DP  RH WIND       PRES   REMARKS
MARTINSBURG    MOCLDY    53  45  74 E8        30.22R
PETERSBURG*    MOCLDY    52  49  92 W3        30.16S

$$

VAZ036>039-050-260900-
CENTRAL FOOTHILLS

CITY           SKY/WX    TMP DP  RH WIND       PRES   REMARKS
CHARLOTTESVILL CLEAR     57  48  72 CALM      30.15F
CULPEPER*      CLOUDY    61  50  67 NE9       30.19S
ORANGE*        CLEAR     48  45  87 CALM      30.18S
GORDONSVILLE*  CLEAR     48  46  93 CALM      30.17S
WARRENTON*     CLOUDY    58  44  61 NE9       30.20R

$$

VAZ055>057-260900-
NORTH AND CENTRAL PIEDMONT

CITY           SKY/WX    TMP DP  RH WIND       PRES   REMARKS
FREDERICKSBRG* MOCLDY    56  48  75 NE10      30.21R
STAFFORD*      CLOUDY    55  47  74 NE8       30.25R

$$

NCZ024-NYZ072-PAZ021-071-VAZ022-071-260900-
OTHER REGIONAL OBSERVATIONS

CITY           SKY/WX    TMP DP  RH WIND       PRES   REMARKS
NEW YORK CITY  LGT RAIN  38  36  92 E12       30.43F FOG
PHILADELPHIA   CLOUDY    44  38  79 NE10      30.36R
PITTSBURGH     CLOUDY    59  51  75 SE8       30.09S
ROANOKE        PTCLDY    54  46  74 CALM      30.16F
RICHMOND       PTCLDY    58  51  78 S5        30.19S
RALEIGH        CLOUDY    58  51  78 S5        30.20S

$$

ANZ530>537-260900-
MARINE OBSERVATIONS

STATION/POSITION TIME  TEMP    WIND        PRES
                       AIR SEA DIR/SP/G
                 (UTC) (F)     (DEG/KT/KT) (MB)
THOMAS PT LIGHT  0800   47 45   60/  9/ 10   N/A
BALT KEY BRIDGE  0736   47      60/ 11/ 12 1025.9R
COVE POINT       0736   47      80/  7/  9 1025.0R
LEWISETTA        0736   49 50   70/  6/ 10 1023.4R
SOLOMONS ISLAND  0736   49 47   60/  5/  8   N/A
PINEY POINT      0748           80/  8/ 11   N/A

$$





USA.gov is the U.S. government's official web portal to all federal, state and local government web resources and services.